York, NE

2:55 PM CDT on August 19, 2017 (GMT -0500)
York Municipal

Weather History for KJYR - August, 2013

Change the Weather History Date:

Friday, August 30, 2013

  Actual Average Record
Temperature  
Mean Temperature 78 °F -  
Max Temperature 93 °F 85 °F 102 °F (1948)
Min Temperature 64 °F 62 °F 50 °F (1986)
Cooling Degree Days 14    
Growing Degree Days 28 (Base 50)    
Moisture  
Dew Point 71 °F    
Average Humidity 77    
Maximum Humidity 100    
Minimum Humidity 52    
Precipitation  
Precipitation 0.00 in - - ()
Sea Level Pressure  
Sea Level Pressure 29.93 in    
Wind  
Wind Speed 7 mph (NNE)    
Max Wind Speed 13 mph    
Max Gust Speed 17 mph    
Visibility 10 miles    
Events      
Averages and records for this station are not official NWS values.
T = Trace of Precipitation, MM = Missing Value Source: NWS Daily Summary

Daily Weather History Graph

Daily Weather History Graph

Search for Another Location

Airport or City:

Trip Planner

Search our weather history database for the weather conditions in past years. The results will help you decide how hot, cold, wet, or windy it might be!

Date:

Astronomy

Aug. 30, 2013 Rise Set
Actual Time 6:55 AM CDT 8:05 PM CDT
Civil Twilight 6:27 AM CDT 8:33 PM CDT
Nautical Twilight 5:53 AM CDT 9:07 PM CDT
Astronomical Twilight 5:17 AM CDT 9:42 PM CDT
Moon 1:34 AM CDT (8/30) 4:23 PM CDT (8/30)
Length of Visible Light 14h 06m
Length of Day
13h 10m
Waning Crescent, 29% of the Moon is Illuminated
Aug 30
Waning Crescent
Sep 5
New
Sep 12
First Quarter
Sep 19
Full
Sep 26
Last Quarter

Hourly Weather History & Observations

Time (CDT) Temp. Heat Index Dew Point Humidity Pressure Visibility Wind Dir Wind Speed Gust Speed Precip Events Conditions
12:15 AM 77.0 °F - 68.0 °F 74% 29.94 in 10.0 mi South 6.9 mph - N/A   Clear
12:35 AM 77.0 °F - 68.0 °F 74% 29.95 in 10.0 mi South 6.9 mph - N/A   Clear
12:55 AM 75.2 °F - 68.0 °F 78% 29.94 in 10.0 mi South 5.8 mph - N/A   Clear
1:15 AM 75.2 °F - 68.0 °F 78% 29.95 in 10.0 mi South 5.8 mph - N/A   Clear
1:35 AM 73.4 °F - 68.0 °F 83% 29.95 in 10.0 mi South 5.8 mph - N/A   Clear
1:55 AM 73.4 °F - 68.0 °F 83% 29.95 in 10.0 mi South 5.8 mph - N/A   Clear
2:15 AM 73.4 °F - 68.0 °F 83% 29.94 in 10.0 mi South 5.8 mph - N/A   Clear
2:35 AM 73.4 °F - 68.0 °F 83% 29.94 in 10.0 mi South 6.9 mph - N/A   Clear
2:55 AM 71.6 °F - 68.0 °F 88% 29.94 in 10.0 mi South 5.8 mph - N/A   Clear
3:15 AM 71.6 °F - 68.0 °F 88% 29.94 in 10.0 mi South 6.9 mph - N/A   Clear
3:35 AM 71.6 °F - 68.0 °F 88% 29.94 in 10.0 mi South 6.9 mph - N/A   Clear
3:55 AM 71.6 °F - 66.2 °F 83% 29.93 in 10.0 mi SSW 4.6 mph - N/A   Clear
4:15 AM 69.8 °F - 66.2 °F 88% 29.93 in 10.0 mi South 5.8 mph - N/A   Clear
4:35 AM 69.8 °F - 66.2 °F 88% 29.93 in 10.0 mi South 5.8 mph - N/A   Clear
4:55 AM 68.0 °F - 66.2 °F 94% 29.93 in 10.0 mi South 5.8 mph - N/A   Clear
5:15 AM 68.0 °F - 66.2 °F 94% 29.93 in 10.0 mi South 5.8 mph - N/A   Clear
5:35 AM 68.0 °F - 66.2 °F 94% 29.92 in 10.0 mi South 5.8 mph - N/A   Clear
5:55 AM 68.0 °F - 66.2 °F 94% 29.92 in 10.0 mi South 8.1 mph - N/A   Clear
6:15 AM 68.0 °F - 66.2 °F 94% 29.93 in 10.0 mi SW 4.6 mph - N/A   Clear
6:35 AM 66.2 °F - 66.2 °F 100% 29.94 in 10.0 mi SW 3.5 mph - N/A   Clear
6:55 AM 64.4 °F - 64.4 °F 100% 29.94 in 9.0 mi West 4.6 mph - N/A   Clear
7:15 AM 64.4 °F - 64.4 °F 100% 29.94 in 10.0 mi SSW 4.6 mph - N/A   Clear
7:35 AM 68.0 °F - 66.2 °F 94% 29.94 in 10.0 mi SW 4.6 mph - N/A   Clear
7:55 AM 68.0 °F - 66.2 °F 94% 29.94 in 10.0 mi SSW 4.6 mph - N/A   Clear
8:55 AM 75.2 °F - 66.2 °F 73% 29.95 in 10.0 mi West 4.6 mph - N/A   Clear
9:15 AM 75.2 °F - 66.2 °F 73% 29.95 in 10.0 mi West 4.6 mph - N/A   Clear
9:35 AM 77.0 °F - 68.0 °F 74% 29.96 in 10.0 mi WNW 4.6 mph - N/A   Clear
9:55 AM 80.6 °F 83.2 °F 68.0 °F 65% 29.96 in 10.0 mi WNW 4.6 mph - N/A   Clear
10:15 AM 80.6 °F 83.2 °F 68.0 °F 65% 29.95 in 10.0 mi NNW 4.6 mph - N/A   Clear
10:35 AM 82.4 °F 86.3 °F 69.8 °F 66% 29.95 in 10.0 mi North 3.5 mph - N/A   Clear
10:55 AM 84.2 °F 88.4 °F 69.8 °F 62% 29.95 in 10.0 mi North 4.6 mph - N/A   Clear
11:15 AM 86.0 °F 91.8 °F 71.6 °F 62% 29.96 in 10.0 mi NNW 5.8 mph - N/A   Clear
11:35 AM 86.0 °F 91.8 °F 71.6 °F 62% 29.96 in 10.0 mi North 5.8 mph - N/A   Clear
11:55 AM 87.8 °F 95.6 °F 73.4 °F 62% 29.95 in 10.0 mi North 5.8 mph - N/A   Clear
12:15 PM 89.6 °F 98.2 °F 73.4 °F 59% 29.95 in 10.0 mi North 8.1 mph - N/A   Clear
12:35 PM 89.6 °F 98.2 °F 73.4 °F 59% 29.95 in 10.0 mi NNE 6.9 mph - N/A   Clear
12:55 PM 91.4 °F 100.1 °F 73.4 °F 55% 29.94 in 10.0 mi North 9.2 mph - N/A   Clear
1:15 PM 91.4 °F 100.1 °F 73.4 °F 55% 29.94 in 10.0 mi NNE 9.2 mph - N/A   Clear
1:35 PM 91.4 °F 100.1 °F 73.4 °F 55% 29.94 in 10.0 mi NNE 10.4 mph - N/A   Clear
1:55 PM 93.2 °F 102.4 °F 73.4 °F 52% 29.93 in 10.0 mi NE 9.2 mph - N/A   Clear
2:15 PM 93.2 °F 102.4 °F 73.4 °F 52% 29.93 in 10.0 mi NNE 9.2 mph 17.3 mph N/A   Clear
2:35 PM 93.2 °F 102.4 °F 73.4 °F 52% 29.93 in 10.0 mi NNE 10.4 mph - N/A   Clear
2:55 PM 93.2 °F 102.4 °F 73.4 °F 52% 29.93 in 10.0 mi NNE 9.2 mph 16.1 mph N/A   Clear
3:15 PM 93.2 °F 105.0 °F 75.2 °F 56% 29.92 in 10.0 mi NNE 9.2 mph 16.1 mph N/A   Clear
3:35 PM 93.2 °F 105.0 °F 75.2 °F 56% 29.92 in 9.0 mi NNE 10.4 mph 16.1 mph N/A   Clear
3:55 PM 93.2 °F 105.0 °F 75.2 °F 56% 29.91 in 10.0 mi NNE 9.2 mph - N/A   Clear
4:15 PM 93.2 °F 105.0 °F 75.2 °F 56% 29.91 in 10.0 mi North 12.7 mph - N/A   Clear
4:35 PM 93.2 °F 105.0 °F 75.2 °F 56% 29.91 in 10.0 mi North 12.7 mph 16.1 mph N/A   Clear
4:55 PM 93.2 °F 102.4 °F 73.4 °F 52% 29.91 in 10.0 mi NNE 10.4 mph - N/A   Clear
5:15 PM 93.2 °F 105.0 °F 75.2 °F 56% 29.90 in 9.0 mi North 9.2 mph - N/A   Clear
5:35 PM 91.4 °F 105.1 °F 77.0 °F 63% 29.90 in 10.0 mi North 10.4 mph - N/A   Clear
5:55 PM 91.4 °F 105.1 °F 77.0 °F 63% 29.90 in 10.0 mi North 12.7 mph - N/A   Clear
6:15 PM 91.4 °F 105.1 °F 77.0 °F 63% 29.90 in 10.0 mi NNE 12.7 mph - N/A   Clear
6:35 PM 89.6 °F 102.2 °F 77.0 °F 66% 29.90 in 10.0 mi NNE 10.4 mph - N/A   Clear
6:55 PM 87.8 °F 99.7 °F 77.0 °F 70% 29.90 in 10.0 mi NE 8.1 mph - N/A   Clear
7:15 PM 86.0 °F 96.9 °F 77.0 °F 74% 29.89 in 10.0 mi NE 6.9 mph - N/A   Clear
7:35 PM 84.2 °F 94.1 °F 77.0 °F 79% 29.89 in 10.0 mi NNE 6.9 mph - N/A   Clear
7:55 PM 82.4 °F 90.9 °F 77.0 °F 84% 29.89 in 10.0 mi NNE 5.8 mph - N/A   Clear
8:15 PM 80.6 °F 87.1 °F 77.0 °F 89% 29.90 in 10.0 mi NE 6.9 mph - N/A   Clear
8:35 PM 80.6 °F 86.2 °F 75.2 °F 84% 29.90 in 10.0 mi NE 4.6 mph - N/A   Clear
8:55 PM 77.0 °F - 75.2 °F 94% 29.90 in 10.0 mi NNE 4.6 mph - N/A   Clear
9:15 PM 77.0 °F - 75.2 °F 94% 29.91 in 10.0 mi NNE 5.8 mph - N/A   Clear
9:35 PM 77.0 °F - 75.2 °F 94% 29.91 in 10.0 mi NNE 4.6 mph - N/A   Clear
9:55 PM 75.2 °F - 75.2 °F 100% 29.92 in 10.0 mi NNE 4.6 mph - N/A   Clear
10:15 PM 75.2 °F - 75.2 °F 100% 29.92 in 9.0 mi NNE 4.6 mph - N/A   Clear
10:35 PM 73.4 °F - 73.4 °F 100% 29.92 in 7.0 mi NNE 6.9 mph - N/A   Clear
10:55 PM 73.4 °F - 73.4 °F 100% 29.92 in 8.0 mi NNE 5.8 mph - N/A   Clear
11:15 PM 73.4 °F - 73.4 °F 100% 29.92 in 9.0 mi NE 6.9 mph - N/A   Clear
11:35 PM 73.4 °F - 73.4 °F 100% 29.91 in 9.0 mi NE 6.9 mph - N/A   Clear
11:55 PM 75.2 °F - 73.4 °F 94% 29.91 in 10.0 mi ENE 5.8 mph - N/A   Clear